QPF
0.03 0.03 0.03 0.02 0.03 0.04 0.04 0.04 0.04 0.04 0.03 0.02 0.02 0.02 0.01 0.01 0.01 0.01 0.01 0.01 0.02 0.02 0.01 0.01 0.01 0.01 0.01 0.01 0.01 0.02 0.02 0.02 0.02 0.02 0.02 0.02 0.02 0.02 0.02 0.02 0.02 0.02 0.02 0.03
0.02 0.03 0.03 0.02 0.02 0.03 0.04 0.04 0.03 0.02 0.03 0.03 0.02 0.02 0.01 0.01 0.01 0.01 0.01 0.02 0.02 0.02 0.02 0.02 0.02 0.02 0.01 0.01 0.01 0.01 0.01 0.02 0.02 0.02 0.02 0.02 0.02 0.02 0.02 0.02 0.02 0.02 0.02 0.03
0.02 0.02 0.03 0.04 0.04 0.04 0.04 0.04 0.03 0.04 0.04 0.03 0.02 0.02 0.02 0.02 0.02 0.02 0.03 0.04 0.03 0.03 0.03 0.03 0.03 0.02 0.02 0.01 0.01 0.01 0.01 0.01 0.02 0.02 0.02 0.02 0.02 0.02 0.02 0.02 0.02 0.02 0.02 0.02
0.02 0.02 0.05 0.06 0.04 0.03 0.03 0.04 0.04 0.04 0.03 0.03 0.03 0.03 0.02 0.02 0.02 0.03 0.03 0.03 0.04 0.03 0.03 0.03 0.03 0.03 0.02 0.02 0.01 0.01 0.01 0.01 0.01 0.01 0.01 0.02 0.03 0.03 0.03 0.02 0.02 0.02 0.02 0.02
0.03 0.03 0.03 0.03 0.03 0.05 0.04 0.05 0.04 0.04 0.03 0.03 0.03 0.02 0.02 0.02 0.02 0.02 0.02 0.03 0.03 0.03 0.03 0.03 0.03 0.03 0.02 0.03 0.02 0.02 0.01 0.01 0.01 0.01 0.01 0.02 0.03 0.03 0.03 0.02 0.02 0.02 0.02 0.02
0.04 0.04 0.04 0.04 0.03 0.03 0.04 0.05 0.03 0.03 0.03 0.03 0.02 0.02 0.03 0.02 0.02 0.02 0.02 0.02 0.03 0.03 0.02 0.02 0.03 0.02 0.02 0.03 0.02 0.01 0.01 0.01 0.01 0.01 0.02 0.02 0.03 0.03 0.03 0.03 0.02 0.02 0.02 0.01
0.04 0.04 0.04 0.03 0.02 0.02 0.05 0.06 0.03 0.03 0.03 0.03 0.02 0.03 0.03 0.03 0.02 0.02 0.02 0.02 0.03 0.03 0.02 0.02 0.02 0.03 0.02 0.02 0.02 0.02 0.01 0.01 0.01 0.01 0.02 0.02 0.03 0.03 0.03 0.03 0.02 0.02 0.02 0.01
0.04 0.05 0.05 0.03 0.03 0.06 0.07 0.04 0.03 0.03 0.03 0.03 0.03 0.03 0.03 0.03 0.03 0.02 0.03 0.03 0.02 0.02 0.02 0.02 0.02 0.03 0.02 0.02 0.02 0.02 0.01 0.01 0.01 0.01 0.01 0.01 0.02 0.02 0.02 0.02 0.02 0.03 0.03 0.02
0.05 0.06 0.06 0.05 0.06 0.07 0.06 0.05 0.04 0.04 0.03 0.03 0.03 0.03 0.04 0.04 0.04 0.04 0.04 0.03 0.03 0.02 0.02 0.03 0.03 0.03 0.03 0.02 0.02 0.01 0.01 0.01 0.01 0.01 0.01 0.01 0.02 0.02 0.02 0.02 0.02 0.03 0.03 0.03
0.03 0.04 0.04 0.03 0.04 0.04 0.04 0.05 0.04 0.04 0.04 0.04 0.04 0.04 0.04 0.04 0.04 0.04 0.04 0.04 0.03 0.03 0.03 0.03 0.03 0.03 0.03 0.02 0.02 0.01 0.01 0.01 0.01 0.01 0.01 0.01 0.02 0.02 0.03 0.03 0.03 0.03 0.04 0.04
0.03 0.03 0.03 0.02 0.03 0.04 0.04 0.04 0.04 0.03 0.03 0.04 0.04 0.04 0.04 0.04 0.04 0.04 0.04 0.03 0.03 0.04 0.04 0.04 0.04 0.04 0.04 0.03 0.02 0.02 0.02 0.02 0.02 0.02 0.02 0.02 0.02 0.03 0.03 0.04 0.04 0.04 0.04 0.04
0.03 0.02 0.03 0.02 0.02 0.02 0.03 0.03 0.04 0.03 0.03 0.03 0.03 0.03 0.03 0.04 0.04 0.04 0.04 0.04 0.04 0.04 0.05 0.05 0.05 0.05 0.06 0.05 0.04 0.03 0.03 0.03 0.03 0.03 0.03 0.03 0.03 0.04 0.04 0.04 0.04 0.04 0.04 0.04
0.03 0.02 0.02 0.02 0.02 0.02 0.03 0.03 0.04 0.04 0.04 0.04 0.04 0.03 0.02 0.03 0.03 0.03 0.03 0.04 0.04 0.05 0.06 0.06 0.05 0.06 0.07 0.06 0.05 0.04 0.04 0.04 0.04 0.05 0.04 0.04 0.04 0.03 0.04 0.04 0.04 0.04 0.03 0.03
0.02 0.02 0.02 0.02 0.02 0.02 0.03 0.03 0.03 0.03 0.04 0.04 0.04 0.03 0.02 0.02 0.02 0.03 0.04 0.04 0.05 0.05 0.05 0.06 0.06 0.06 0.07 0.06 0.05 0.05 0.05 0.05 0.05 0.04 0.04 0.04 0.04 0.03 0.03 0.03 0.04 0.04 0.04 0.04
0.02 0.02 0.03 0.02 0.02 0.02 0.03 0.03 0.03 0.03 0.03 0.04 0.04 0.04 0.03 0.02 0.03 0.03 0.04 0.04 0.04 0.04 0.05 0.04 0.05 0.06 0.06 0.06 0.06 0.06 0.05 0.05 0.04 0.04 0.03 0.03 0.03 0.03 0.03 0.02 0.03 0.03 0.03 0.04
0.02 0.02 0.02 0.02 0.02 0.02 0.02 0.02 0.02 0.03 0.03 0.03 0.03 0.03 0.03 0.02 0.02 0.03 0.03 0.03 0.03 0.04 0.05 0.05 0.05 0.05 0.05 0.05 0.05 0.05 0.05 0.04 0.03 0.03 0.03 0.02 0.02 0.02 0.02 0.02 0.02 0.02 0.02 0.03
0.02 0.02 0.02 0.02 0.02 0.02 0.02 0.03 0.03 0.03 0.03 0.03 0.02 0.02 0.02 0.02 0.02 0.02 0.02 0.03 0.03 0.03 0.03 0.03 0.04 0.04 0.03 0.03 0.03 0.04 0.04 0.03 0.03 0.02 0.02 0.02 0.01 0.01 0.01 0.01 0.01 0.02 0.02 0.02
0.02 0.03 0.03 0.03 0.03 0.02 0.03 0.03 0.03 0.03 0.03 0.02 0.02 0.02 0.01 0.01 0.01 0.01 0.01 0.01 0.02 0.02 0.02 0.02 0.02 0.02 0.02 0.02 0.02 0.02 0.02 0.02 0.02 0.02 0.01 0.01 0.01 0.01 0.01 0.01 0.01 0.02 0.02 0.02
0.02 0.02 0.02 0.02 0.02 0.02 0.03 0.03 0.03 0.03 0.03 0.02 0.02 0.02 0.01 0.01 0.01 0.01 0.01 0.01 0.01 0.01 0.02 0.01 0.01 0.01 0.01 0.01 0.01 0.01 0.01 0.01 0.01 0.01 0.01 0.01 0.01 0.01 0.01 0.02 0.02 0.02 0.02 0.02
0.02 0.02 0.02 0.03 0.03 0.03 0.03 0.03 0.03 0.03 0.02 0.02 0.02 0.02 0.02 0.02 0.02 0.01 0.01 0.01 0.01 0.01 0.01 0.01 0.00 0.00 0.00 0.00 0.01 0.01 0.01 0.01 0.01 0.01 0.01 0.01 0.01 0.01 0.01 0.01 0.01 0.01 0.01 0.01
0.02 0.02 0.02 0.02 0.02 0.02 0.02 0.03 0.03 0.02 0.02 0.02 0.02 0.03 0.03 0.03 0.03 0.02 0.01 0.02 0.01 0.01 0.00 0.00 0.00 0.00 0.00 0.00 0.01 0.01 0.01 0.01 0.01 0.01 0.01 0.01 0.01 0.01 0.01 0.01 0.01 0.01 0.01 0.01
0.02 0.02 0.02 0.02 0.02 0.02 0.02 0.02 0.02 0.03 0.02 0.02 0.03 0.03 0.03 0.03 0.03 0.02 0.02 0.01 0.01 0.00 0.00 0.00 0.00 0.00 0.01 0.01 0.01 0.01 0.01 0.01 0.01 0.01 0.01 0.01 0.02 0.02 0.02 0.02 0.02 0.01 0.01 0.01
0.01 0.01 0.01 0.01 0.01 0.01 0.01 0.01 0.02 0.02 0.02 0.02 0.02 0.02 0.02 0.02 0.02 0.02 0.02 0.01 0.01 0.01 0.00 0.00 0.00 0.00 0.01 0.01 0.00 0.00 0.00 0.00 0.01 0.01 0.01 0.01 0.02 0.02 0.02 0.02 0.02 0.01 0.01 0.01
0.02 0.02 0.02 0.02 0.01 0.01 0.01 0.01 0.01 0.02 0.02 0.02 0.02 0.01 0.01 0.01 0.01 0.01 0.01 0.01 0.01 0.01 0.00 0.00 0.00 0.00 0.00 0.00 0.00 0.00 0.00 0.00 0.00 0.01 0.01 0.01 0.01 0.02 0.02 0.01 0.01 0.01 0.01 0.01
0.02 0.02 0.01 0.01 0.01 0.01 0.01 0.01 0.01 0.01 0.01 0.01 0.01 0.01 0.01 0.01 0.01 0.01 0.01 0.01 0.00 0.00 0.00 0.00 0.00 0.00 0.00 0.00 0.00 0.00 0.00 0.00 0.01 0.01 0.01 0.01 0.01 0.01 0.01 0.01 0.01 0.01 0.01 0.01
0.01 0.01 0.01 0.01 0.01 0.01 0.01 0.01 0.01 0.01 0.01 0.01 0.01 0.01 0.01 0.01 0.00 0.00 0.00 0.00 0.00 0.00 0.00 0.00 0.00 0.00 0.00 0.00 0.00 0.00 0.00 0.00 0.00 0.01 0.01 0.01 0.01 0.01 0.01 0.01 0.01 0.01 0.01 0.01
0.01 0.01 0.01 0.01 0.01 0.01 0.01 0.00 0.00 0.00 0.00 0.01 0.01 0.00 0.00 0.00 0.00 0.00 0.00 0.00 0.00 0.00 0.00 0.00 0.00 0.00 0.00 0.00 0.00 0.00 0.00 0.00 0.01 0.01 0.01 0.01 0.01 0.01 0.01 0.01 0.01 0.01 0.01 0.01
MSLP
1030.24 1029.82 1029.40 1029.01 1028.70 1028.48 1028.36 1028.32 1028.33 1028.34 1028.31 1028.21 1028.02 1027.73 1027.37 1026.96 1026.55 1026.15 1025.80 1025.49 1025.21 1024.94 1024.63 1024.25 1023.77 1023.18 1022.50 1021.73 1020.92 1020.12 1019.34 1018.62 1017.96 1017.33 1016.71 1016.04 1015.28 1014.39 1013.38 1012.24 1011.02 1009.78 1008.59 1007.54
1030.78 1030.37 1029.93 1029.51 1029.15 1028.88 1028.69 1028.58 1028.52 1028.48 1028.41 1028.30 1028.11 1027.85 1027.53 1027.18 1026.82 1026.47 1026.15 1025.86 1025.57 1025.28 1024.94 1024.52 1024.01 1023.39 1022.68 1021.91 1021.10 1020.30 1019.53 1018.81 1018.15 1017.51 1016.87 1016.17 1015.39 1014.48 1013.44 1012.29 1011.07 1009.82 1008.63 1007.57
1031.29 1030.86 1030.39 1029.92 1029.50 1029.16 1028.90 1028.72 1028.60 1028.50 1028.41 1028.29 1028.11 1027.89 1027.62 1027.32 1027.00 1026.69 1026.38 1026.09 1025.79 1025.46 1025.08 1024.62 1024.08 1023.44 1022.73 1021.96 1021.17 1020.39 1019.64 1018.94 1018.27 1017.63 1016.97 1016.26 1015.46 1014.54 1013.50 1012.35 1011.13 1009.90 1008.71 1007.64
1031.70 1031.24 1030.72 1030.21 1029.73 1029.31 1028.99 1028.74 1028.57 1028.44 1028.32 1028.20 1028.05 1027.86 1027.62 1027.35 1027.06 1026.76 1026.45 1026.13 1025.79 1025.42 1025.00 1024.51 1023.94 1023.30 1022.60 1021.86 1021.10 1020.35 1019.63 1018.95 1018.30 1017.66 1016.99 1016.27 1015.46 1014.55 1013.51 1012.38 1011.18 1009.97 1008.80 1007.74
1031.93 1031.43 1030.88 1030.31 1029.78 1029.32 1028.94 1028.65 1028.44 1028.29 1028.16 1028.05 1027.91 1027.74 1027.52 1027.27 1026.98 1026.67 1026.33 1025.97 1025.59 1025.16 1024.70 1024.18 1023.60 1022.97 1022.29 1021.58 1020.87 1020.17 1019.49 1018.84 1018.21 1017.57 1016.91 1016.19 1015.38 1014.47 1013.46 1012.36 1011.19 1010.02 1008.88 1007.83
1031.96 1031.42 1030.83 1030.22 1029.66 1029.16 1028.76 1028.44 1028.21 1028.05 1027.93 1027.82 1027.69 1027.53 1027.32 1027.06 1026.76 1026.42 1026.04 1025.63 1025.20 1024.73 1024.22 1023.68 1023.10 1022.48 1021.84 1021.18 1020.52 1019.87 1019.24 1018.62 1018.01 1017.38 1016.72 1016.00 1015.20 1014.31 1013.33 1012.27 1011.16 1010.03 1008.94 1007.93
1031.77 1031.19 1030.57 1029.94 1029.37 1028.86 1028.45 1028.14 1027.91 1027.75 1027.63 1027.52 1027.40 1027.24 1027.03 1026.76 1026.44 1026.06 1025.64 1025.18 1024.69 1024.18 1023.65 1023.09 1022.51 1021.92 1021.31 1020.70 1020.09 1019.49 1018.90 1018.31 1017.71 1017.09 1016.44 1015.72 1014.94 1014.07 1013.13 1012.12 1011.07 1010.01 1008.99 1008.03
1031.38 1030.77 1030.13 1029.51 1028.94 1028.46 1028.06 1027.76 1027.55 1027.41 1027.30 1027.20 1027.08 1026.92 1026.70 1026.41 1026.06 1025.65 1025.19 1024.69 1024.16 1023.61 1023.05 1022.49 1021.91 1021.34 1020.77 1020.19 1019.63 1019.06 1018.50 1017.93 1017.34 1016.73 1016.07 1015.37 1014.59 1013.76 1012.86 1011.91 1010.93 1009.95 1009.01 1008.13
1030.83 1030.21 1029.58 1028.98 1028.45 1028.00 1027.64 1027.38 1027.19 1027.07 1026.97 1026.88 1026.76 1026.60 1026.37 1026.07 1025.70 1025.26 1024.77 1024.23 1023.67 1023.10 1022.52 1021.94 1021.37 1020.80 1020.24 1019.69 1019.14 1018.60 1018.05 1017.48 1016.90 1016.28 1015.63 1014.92 1014.17 1013.36 1012.51 1011.63 1010.73 1009.85 1009.00 1008.22
1030.17 1029.56 1028.97 1028.43 1027.95 1027.56 1027.26 1027.04 1026.89 1026.78 1026.70 1026.62 1026.50 1026.33 1026.09 1025.78 1025.39 1024.94 1024.42 1023.86 1023.28 1022.68 1022.07 1021.48 1020.89 1020.31 1019.75 1019.19 1018.64 1018.09 1017.53 1016.96 1016.36 1015.74 1015.08 1014.38 1013.64 1012.87 1012.07 1011.27 1010.46 1009.67 1008.93 1008.26
1029.44 1028.88 1028.36 1027.89 1027.50 1027.18 1026.94 1026.78 1026.66 1026.59 1026.52 1026.44 1026.32 1026.14 1025.90 1025.58 1025.18 1024.71 1024.18 1023.60 1022.98 1022.35 1021.72 1021.08 1020.46 1019.85 1019.25 1018.67 1018.09 1017.50 1016.92 1016.32 1015.70 1015.06 1014.39 1013.70 1012.99 1012.25 1011.52 1010.79 1010.08 1009.40 1008.78 1008.24
1028.68 1028.20 1027.77 1027.41 1027.11 1026.88 1026.72 1026.60 1026.53 1026.47 1026.41 1026.33 1026.21 1026.03 1025.77 1025.44 1025.03 1024.55 1024.00 1023.40 1022.75 1022.09 1021.40 1020.72 1020.04 1019.37 1018.71 1018.06 1017.42 1016.79 1016.15 1015.51 1014.86 1014.20 1013.53 1012.85 1012.17 1011.48 1010.81 1010.17 1009.56 1009.00 1008.52 1008.11
1027.92 1027.54 1027.23 1026.97 1026.78 1026.64 1026.55 1026.49 1026.45 1026.41 1026.35 1026.27 1026.13 1025.94 1025.67 1025.33 1024.91 1024.41 1023.84 1023.21 1022.53 1021.81 1021.06 1020.31 1019.55 1018.80 1018.06 1017.33 1016.61 1015.91 1015.22 1014.53 1013.85 1013.17 1012.50 1011.83 1011.18 1010.55 1009.96 1009.41 1008.91 1008.48 1008.13 1007.87
1027.17 1026.91 1026.71 1026.57 1026.48 1026.43 1026.41 1026.39 1026.37 1026.34 1026.28 1026.18 1026.03 1025.81 1025.53 1025.17 1024.73 1024.22 1023.62 1022.96 1022.23 1021.46 1020.64 1019.81 1018.96 1018.12 1017.28 1016.47 1015.67 1014.89 1014.13 1013.40 1012.68 1011.99 1011.32 1010.68 1010.07 1009.50 1008.99 1008.54 1008.16 1007.87 1007.66 1007.55
1026.45 1026.30 1026.22 1026.18 1026.18 1026.20 1026.23 1026.24 1026.23 1026.19 1026.11 1025.99 1025.81 1025.58 1025.27 1024.90 1024.44 1023.91 1023.29 1022.59 1021.83 1021.00 1020.12 1019.21 1018.28 1017.34 1016.41 1015.51 1014.62 1013.77 1012.96 1012.18 1011.44 1010.73 1010.07 1009.46 1008.90 1008.41 1007.98 1007.64 1007.38 1007.22 1007.17 1007.21
1025.77 1025.72 1025.73 1025.78 1025.85 1025.92 1025.97 1025.98 1025.97 1025.90 1025.80 1025.65 1025.44 1025.18 1024.85 1024.46 1023.99 1023.44 1022.81 1022.09 1021.30 1020.43 1019.50 1018.53 1017.53 1016.52 1015.52 1014.53 1013.58 1012.67 1011.81 1010.99 1010.23 1009.53 1008.88 1008.31 1007.80 1007.38 1007.05 1006.81 1006.68 1006.65 1006.74 1006.93
1025.15 1025.17 1025.25 1025.36 1025.47 1025.55 1025.60 1025.61 1025.56 1025.46 1025.31 1025.12 1024.88 1024.59 1024.25 1023.85 1023.38 1022.83 1022.20 1021.48 1020.67 1019.79 1018.84 1017.83 1016.79 1015.74 1014.69 1013.66 1012.66 1011.71 1010.81 1009.98 1009.21 1008.51 1007.89 1007.36 1006.91 1006.55 1006.31 1006.18 1006.16 1006.26 1006.49 1006.82
1024.60 1024.68 1024.80 1024.93 1025.04 1025.12 1025.14 1025.10 1025.01 1024.86 1024.66 1024.43 1024.15 1023.84 1023.49 1023.09 1022.63 1022.10 1021.48 1020.79 1020.01 1019.14 1018.20 1017.20 1016.16 1015.10 1014.04 1012.99 1011.98 1011.02 1010.11 1009.27 1008.51 1007.82 1007.23 1006.73 1006.34 1006.06 1005.89 1005.85 1005.94 1006.16 1006.50 1006.96
1024.14 1024.25 1024.38 1024.50 1024.59 1024.63 1024.60 1024.51 1024.35 1024.14 1023.89 1023.61 1023.31 1022.98 1022.62 1022.23 1021.80 1021.31 1020.74 1020.10 1019.37 1018.55 1017.66 1016.71 1015.71 1014.68 1013.65 1012.62 1011.63 1010.68 1009.79 1008.97 1008.23 1007.57 1007.01 1006.55 1006.21 1005.99 1005.90 1005.94 1006.11 1006.42 1006.86 1007.40
1023.77 1023.88 1024.00 1024.10 1024.14 1024.12 1024.03 1023.87 1023.64 1023.37 1023.07 1022.75 1022.42 1022.08 1021.74 1021.37 1020.98 1020.54 1020.04 1019.46 1018.81 1018.08 1017.27 1016.40 1015.48 1014.52 1013.55 1012.58 1011.63 1010.73 1009.88 1009.10 1008.39 1007.77 1007.25 1006.84 1006.55 1006.38 1006.34 1006.45 1006.69 1007.06 1007.57 1008.17
1023.45 1023.56 1023.66 1023.72 1023.71 1023.62 1023.46 1023.23 1022.94 1022.61 1022.26 1021.91 1021.57 1021.23 1020.90 1020.57 1020.22 1019.84 1019.42 1018.93 1018.37 1017.74 1017.03 1016.26 1015.44 1014.58 1013.70 1012.82 1011.96 1011.12 1010.34 1009.62 1008.96 1008.39 1007.92 1007.56 1007.31 1007.19 1007.21 1007.35 1007.64 1008.05 1008.59 1009.23
1023.16 1023.26 1023.34 1023.35 1023.29 1023.14 1022.92 1022.63 1022.28 1021.91 1021.53 1021.16 1020.81 1020.48 1020.17 1019.87 1019.57 1019.25 1018.90 1018.50 1018.03 1017.51 1016.91 1016.26 1015.55 1014.81 1014.04 1013.27 1012.51 1011.77 1011.08 1010.43 1009.85 1009.35 1008.94 1008.63 1008.43 1008.35 1008.40 1008.58 1008.89 1009.31 1009.85 1010.48
1022.86 1022.96 1023.01 1022.99 1022.88 1022.68 1022.41 1022.08 1021.71 1021.31 1020.92 1020.54 1020.19 1019.87 1019.58 1019.32 1019.06 1018.79 1018.49 1018.16 1017.78 1017.35 1016.86 1016.32 1015.74 1015.12 1014.48 1013.83 1013.19 1012.57 1011.98 1011.43 1010.94 1010.52 1010.18 1009.93 1009.78 1009.74 1009.81 1010.01 1010.32 1010.74 1011.26 1011.86
1022.53 1022.62 1022.65 1022.60 1022.46 1022.24 1021.94 1021.60 1021.21 1020.82 1020.43 1020.06 1019.72 1019.42 1019.15 1018.90 1018.66 1018.42 1018.17 1017.89 1017.57 1017.22 1016.82 1016.39 1015.92 1015.43 1014.92 1014.40 1013.89 1013.40 1012.93 1012.50 1012.11 1011.78 1011.52 1011.33 1011.23 1011.23 1011.33 1011.52 1011.82 1012.22 1012.70 1013.24
1022.15 1022.23 1022.24 1022.18 1022.03 1021.80 1021.51 1021.17 1020.81 1020.43 1020.07 1019.72 1019.40 1019.11 1018.84 1018.60 1018.37 1018.14 1017.90 1017.65 1017.38 1017.08 1016.76 1016.42 1016.06 1015.68 1015.30 1014.92 1014.55 1014.20 1013.86 1013.55 1013.28 1013.04 1012.86 1012.74 1012.69 1012.72 1012.83 1013.02 1013.30 1013.65 1014.08 1014.56
1021.72 1021.80 1021.80 1021.73 1021.58 1021.37 1021.11 1020.81 1020.49 1020.15 1019.82 1019.50 1019.20 1018.92 1018.65 1018.40 1018.15 1017.91 1017.67 1017.43 1017.18 1016.92 1016.66 1016.39 1016.13 1015.87 1015.61 1015.37 1015.14 1014.92 1014.72 1014.54 1014.38 1014.24 1014.14 1014.09 1014.08 1014.13 1014.24 1014.42 1014.66 1014.97 1015.33 1015.74
1021.29 1021.34 1021.34 1021.28 1021.15 1020.98 1020.76 1020.52 1020.25 1019.97 1019.68 1019.39 1019.10 1018.82 1018.54 1018.27 1017.99 1017.73 1017.47 1017.21 1016.97 1016.74 1016.52 1016.33 1016.16 1016.01 1015.88 1015.76 1015.67 1015.58 1015.51 1015.44 1015.39 1015.34 1015.32 1015.31 1015.34 1015.40 1015.51 1015.66 1015.86 1016.11 1016.41 1016.75
Thickness
5354 5365 5369 5372 5378 5386 5390 5398 5402 5412 5418 5423 5428 5434 5440 5446 5452 5457 5461 5465 5468 5472 5478 5483 5489 5494 5499 5502 5506 5509 5513 5515 5518 5520 5522 5523 5524 5525 5525 5526 5527 5527 5527 5528
5345 5360 5365 5365 5370 5375 5382 5390 5395 5402 5407 5413 5419 5424 5428 5433 5439 5443 5447 5451 5455 5460 5465 5470 5475 5481 5485 5489 5493 5497 5500 5503 5506 5509 5510 5512 5513 5514 5515 5515 5516 5516 5516 5517
5337 5353 5357 5351 5356 5363 5370 5377 5382 5385 5390 5400 5405 5410 5413 5418 5424 5429 5433 5438 5443 5446 5451 5456 5462 5467 5472 5477 5481 5484 5488 5491 5494 5497 5498 5500 5501 5502 5503 5504 5504 5505 5505 5506
5329 5336 5329 5341 5353 5357 5361 5364 5369 5375 5381 5388 5392 5397 5403 5407 5411 5416 5421 5425 5430 5434 5439 5444 5449 5455 5460 5465 5469 5472 5476 5478 5481 5484 5486 5488 5489 5490 5491 5492 5492 5493 5494 5494
5321 5325 5333 5338 5341 5344 5349 5354 5356 5361 5370 5377 5383 5390 5393 5396 5400 5405 5409 5414 5418 5422 5427 5432 5437 5443 5448 5452 5457 5460 5463 5466 5469 5472 5473 5475 5476 5477 5478 5479 5480 5481 5481 5481
5313 5316 5315 5319 5331 5343 5346 5343 5344 5350 5356 5363 5370 5374 5376 5383 5388 5394 5398 5403 5407 5411 5416 5420 5425 5431 5436 5440 5444 5448 5451 5454 5456 5459 5461 5463 5463 5464 5466 5467 5468 5469 5469 5469
5302 5306 5310 5309 5323 5337 5326 5321 5332 5339 5344 5350 5353 5355 5361 5371 5377 5382 5387 5392 5396 5400 5404 5408 5413 5419 5423 5427 5431 5435 5438 5441 5444 5446 5448 5450 5451 5453 5454 5455 5456 5456 5456 5456
5294 5293 5295 5301 5311 5309 5307 5316 5322 5327 5332 5337 5342 5348 5354 5360 5366 5370 5375 5380 5384 5388 5391 5396 5401 5407 5411 5414 5418 5423 5426 5429 5431 5433 5436 5438 5439 5439 5441 5442 5443 5443 5443 5443
5282 5283 5288 5291 5293 5297 5301 5306 5312 5317 5323 5328 5333 5338 5345 5350 5355 5359 5363 5368 5372 5376 5379 5383 5388 5394 5398 5401 5406 5410 5413 5415 5417 5420 5422 5424 5425 5426 5427 5429 5430 5431 5431 5431
5278 5281 5282 5285 5288 5291 5295 5298 5304 5309 5315 5319 5323 5329 5335 5340 5344 5348 5352 5356 5361 5365 5368 5371 5376 5380 5384 5389 5394 5398 5400 5402 5404 5406 5408 5410 5412 5413 5415 5416 5417 5418 5419 5420
5269 5272 5276 5279 5280 5283 5288 5293 5297 5302 5307 5311 5315 5320 5326 5330 5334 5338 5342 5345 5349 5353 5356 5359 5364 5368 5372 5377 5382 5386 5388 5389 5391 5393 5395 5397 5398 5399 5401 5403 5405 5407 5408 5409
5259 5264 5264 5268 5274 5278 5282 5285 5290 5294 5298 5303 5307 5311 5317 5320 5323 5327 5331 5334 5338 5341 5344 5348 5352 5356 5360 5364 5369 5373 5375 5377 5379 5381 5382 5383 5385 5386 5388 5390 5392 5394 5396 5397
5256 5260 5261 5265 5269 5272 5275 5279 5283 5286 5290 5295 5299 5303 5307 5311 5313 5317 5320 5324 5327 5330 5333 5337 5341 5344 5348 5352 5356 5360 5362 5364 5367 5368 5369 5371 5372 5374 5375 5377 5379 5381 5383 5386
5254 5255 5257 5260 5262 5266 5269 5273 5276 5279 5283 5287 5291 5294 5298 5301 5304 5307 5310 5313 5317 5320 5324 5327 5330 5333 5336 5340 5344 5347 5350 5352 5354 5355 5357 5358 5360 5362 5364 5365 5366 5368 5370 5373
5248 5249 5250 5254 5258 5261 5264 5267 5269 5271 5275 5278 5282 5285 5288 5291 5294 5297 5300 5304 5307 5311 5314 5317 5319 5322 5325 5329 5332 5334 5337 5339 5341 5343 5344 5346 5348 5350 5351 5353 5354 5356 5357 5359
5243 5245 5247 5249 5251 5254 5257 5259 5261 5263 5266 5269 5272 5275 5278 5281 5284 5287 5291 5294 5297 5300 5303 5306 5309 5311 5315 5318 5321 5323 5325 5327 5329 5331 5332 5334 5336 5337 5338 5340 5341 5342 5344 5345
5237 5239 5241 5243 5245 5248 5250 5251 5253 5256 5259 5262 5264 5267 5271 5273 5276 5278 5281 5284 5287 5290 5292 5295 5298 5301 5304 5307 5309 5311 5313 5315 5318 5319 5320 5322 5323 5325 5326 5328 5329 5330 5331 5333
5232 5234 5235 5237 5239 5241 5244 5245 5247 5249 5250 5253 5256 5259 5262 5264 5265 5268 5271 5274 5277 5280 5282 5285 5288 5291 5294 5296 5298 5300 5302 5303 5304 5306 5308 5309 5311 5313 5314 5315 5316 5318 5319 5320
5230 5230 5231 5233 5234 5235 5237 5238 5240 5241 5243 5245 5248 5251 5253 5255 5257 5259 5262 5265 5267 5270 5272 5275 5279 5282 5284 5285 5288 5289 5290 5291 5293 5294 5296 5298 5299 5301 5302 5303 5304 5305 5307 5308
5224 5225 5226 5227 5228 5229 5230 5231 5232 5234 5235 5238 5240 5242 5244 5247 5249 5251 5254 5256 5258 5260 5263 5267 5269 5272 5273 5275 5277 5278 5279 5280 5281 5283 5284 5285 5287 5288 5290 5291 5292 5293 5295 5296
5218 5219 5220 5220 5221 5222 5223 5224 5225 5226 5228 5230 5232 5234 5236 5238 5240 5243 5245 5248 5250 5253 5255 5258 5260 5262 5264 5265 5267 5268 5268 5269 5271 5272 5273 5274 5275 5277 5278 5280 5281 5282 5283 5284
5212 5212 5213 5213 5213 5214 5215 5216 5217 5219 5221 5222 5224 5226 5228 5230 5232 5234 5237 5239 5241 5244 5247 5248 5250 5253 5254 5256 5256 5257 5258 5259 5260 5261 5262 5263 5264 5265 5267 5268 5269 5271 5272 5273
5207 5207 5207 5207 5207 5207 5208 5209 5211 5212 5213 5214 5216 5217 5219 5222 5224 5226 5229 5231 5233 5236 5238 5239 5241 5244 5245 5246 5246 5247 5248 5249 5250 5251 5251 5252 5253 5255 5256 5257 5259 5260 5261 5262
5202 5202 5202 5201 5201 5201 5202 5203 5204 5206 5206 5208 5209 5211 5212 5215 5217 5219 5221 5223 5225 5228 5229 5231 5233 5235 5236 5236 5236 5237 5238 5239 5240 5240 5242 5243 5244 5245 5246 5247 5249 5250 5251 5252
5198 5197 5197 5196 5196 5197 5197 5198 5199 5199 5200 5202 5203 5205 5206 5208 5209 5211 5213 5215 5218 5220 5221 5222 5224 5226 5226 5226 5226 5227 5228 5229 5230 5231 5232 5233 5235 5236 5237 5238 5239 5240 5242 5243
5194 5193 5193 5192 5192 5192 5193 5193 5193 5194 5195 5196 5197 5199 5200 5201 5203 5204 5206 5208 5210 5212 5213 5214 5215 5216 5217 5217 5218 5219 5219 5220 5221 5222 5223 5224 5225 5226 5228 5229 5230 5231 5232 5233
5191 5189 5188 5188 5188 5188 5188 5188 5188 5188 5189 5190 5191 5193 5194 5195 5196 5198 5199 5201 5202 5203 5205 5206 5207 5208 5209 5209 5210 5210 5211 5212 5212 5213 5214 5215 5216 5217 5219 5220 5221 5222 5223 5224